Zurück zum Katalog

YAOGAN-33 03

AktivMilitärSSO
NORAD 57797·PAYLOAD·🇨🇳 China

Gestartet Sep 6, 2023 von Jiuquan Satellite Launch Center

Loading…

Nächste Überflüge (nächste 24 Stunden)

TLE

AktuellSource: Space-Track

Epoche: Sep 14, 2026, 15:18 UTC

1 57797U 23136A   26257.63801865  .00000289  00000-0  71715-4 0  9993
2 57797  98.1923 180.7392 0006405 270.8308  89.2158 14.58789051160976

Verfolge YAOGAN-33 03 in Echtzeit mit AllMySat

Download on the App Store